[sarex] 2 Line ISS Keps 10-13

Dave Larsen PhD doc at volcano.net
Thu Oct 12 19:30:04 PDT 2006


ISS
1 25544U 98067A   06285.98420664  .00007505  00000-0  49352-4 0  8498
2 25544 051.6353 300.5949 0013135 090.2623 352.0864 15.76844687451745


More information about the SAREX mailing list